This is the latest recevied weather packets stored in our database for station/object OK1FET-5. If no packets are shown the sender has not sent any weather packets the latest 10 day(s).
| Time | Temp. | Humidity | Pressure | Rain* | Wind** | Luminosity | Snow |
|---|---|---|---|---|---|---|---|
| 1787483319 | 25.56° C | 45% | 1024.2 hPa | - | - | - | - |
| 1787482723 | 25.56° C | 44% | 1024.2 hPa | - | - | - | - |
| 1787482127 | 24.44° C | 50% | 1024.2 hPa | - | - | - | - |
| 1787481531 | 22.22° C | 53% | 1024.3 hPa | - | - | - | - |
| 1787480936 | 22.22° C | 52% | 1024.4 hPa | - | - | - | - |
| 1787480340 | 25° C | 47% | 1024.4 hPa | - | - | - | - |
| 1787479744 | 25.56° C | 46% | 1024.5 hPa | - | - | - | - |
| 1787479148 | 25° C | 48% | 1024.6 hPa | - | - | - | - |
| 1787478553 | 25° C | 47% | 1024.7 hPa | - | - | - | - |
| 1787477957 | 25.56° C | 55% | 1024.8 hPa | - | - | - | - |
| 1787477361 | 25° C | 58% | 1024.9 hPa | - | - | - | - |
| 1787476765 | 24.44° C | 57% | 1024.8 hPa | - | - | - | - |
| 1787475574 | 23.89° C | 56% | 1024.9 hPa | - | - | - | - |
| 1787474978 | 23.89° C | 56% | 1024.9 hPa | - | - | - | - |
| 1787474382 | 23.33° C | 59% | 1024.9 hPa | - | - | - | - |
| 1787473786 | 23.33° C | 60% | 1024.9 hPa | - | - | - | - |
| 1787473191 | 23.89° C | 62% | 1024.9 hPa | - | - | - | - |
| 1787472595 | 22.22° C | 66% | 1024.9 hPa | - | - | - | - |
| 1787471999 | 21.67° C | 64% | 1024.9 hPa | - | - | - | - |
| 1787471403 | 21.67° C | 69% | 1024.9 hPa | - | - | - | - |
| 1787470807 | 21.11° C | 75% | 1024.9 hPa | - | - | - | - |
| 1787470212 | 21.11° C | 74% | 1024.9 hPa | - | - | - | - |
| 1787469616 | 20.56° C | 78% | 1024.8 hPa | - | - | - | - |
| 1787469020 | 20° C | 76% | 1024.9 hPa | - | - | - | - |
| 1787468425 | 19.44° C | 75% | 1024.8 hPa | - | - | - | - |
* Rain since midnight (hover to see other rain measurements)
** Current wind speed in m/s (hover to see current wind gust speed)